ITY336 LIRF-LFML

Flight info

Callsign ITY336
Flight time 1h 0m
Altitude 32000
Route PODOX DCT BEGUD DCT MIRSA DCT OMARD DCT STP A3 RUBIT G7 LANKO
Aircraft A320/M-SDE3FGHIRWY/LB1

Departure

Time 2026-05-05 11:36
Airport Rome–Fiumicino Leonardo da Vinci International Airport (LIRF)

Arrival

Time 2026-05-05 12:37
Airport Marseille Provence Airport (LFML)
Time Latitude Longitude Altitude Speed Heading
2026-05-05 11:14 41.79652 12.25591 14 ft 0 kts 298°
2026-05-05 11:25 41.79644 12.25610 16 ft 2 kts 298°
2026-05-05 11:25 41.79636 12.25631 17 ft 3 kts 314°
2026-05-05 11:25 41.79622 12.25644 18 ft 2 kts 350°
2026-05-05 11:25 41.79606 12.25645 15 ft 0 kts 21°
2026-05-05 11:29 41.79609 12.25647 15 ft 4 kts 22°
2026-05-05 11:29 41.79639 12.25664 15 ft 5 kts 23°
2026-05-05 11:30 41.79693 12.25697 14 ft 19 kts 24°
2026-05-05 11:30 41.79809 12.25769 15 ft 18 kts 25°
2026-05-05 11:30 41.79905 12.25846 14 ft 15 kts 25°
2026-05-05 11:30 41.79998 12.25903 15 ft 14 kts 24°
2026-05-05 11:31 41.80083 12.25953 15 ft 13 kts 24°
2026-05-05 11:31 41.80160 12.25999 14 ft 12 kts 24°
2026-05-05 11:31 41.80229 12.26041 14 ft 10 kts 24°
2026-05-05 11:31 41.80291 12.26078 14 ft 9 kts 24°
2026-05-05 11:32 41.80346 12.26111 14 ft 8 kts 24°
2026-05-05 11:32 41.80389 12.26138 15 ft 8 kts 25°
2026-05-05 11:32 41.80446 12.26172 16 ft 9 kts 18°
2026-05-05 11:32 41.80509 12.26208 18 ft 10 kts 46°
2026-05-05 11:33 41.80541 12.26279 16 ft 8 kts 61°
2026-05-05 11:33 41.80562 12.26346 16 ft 7 kts 70°
2026-05-05 11:33 41.80585 12.26445 16 ft 15 kts 73°
2026-05-05 11:33 41.80617 12.26582 16 ft 16 kts 72°
2026-05-05 11:34 41.80660 12.26731 15 ft 19 kts 67°
2026-05-05 11:34 41.80710 12.26905 15 ft 21 kts 70°
2026-05-05 11:34 41.80798 12.27047 13 ft 19 kts
2026-05-05 11:34 41.80912 12.26990 12 ft 17 kts 339°
2026-05-05 11:35 41.80946 12.26883 15 ft 0 kts 252°
2026-05-05 11:35 41.80944 12.26877 14 ft 5 kts 252°
2026-05-05 11:35 41.80838 12.26513 16 ft 79 kts 246°
2026-05-05 11:36 41.80563 12.25555 15 ft 139 kts 248°
2026-05-05 11:36 41.80200 12.24167 203 ft 169 kts 240°
2026-05-05 11:36 41.79932 12.22634 851 ft 168 kts 247°
2026-05-05 11:36 41.79538 12.21147 1445 ft 177 kts 246°
2026-05-05 11:37 41.79343 12.19386 1783 ft 204 kts 260°
2026-05-05 11:37 41.79247 12.17386 2127 ft 226 kts 262°
2026-05-05 11:37 41.79174 12.15236 2806 ft 233 kts 263°
2026-05-05 11:37 41.79111 12.13061 3633 ft 234 kts 263°
2026-05-05 11:38 41.79051 12.10847 4452 ft 241 kts 265°
2026-05-05 11:38 41.79000 12.08572 5265 ft 247 kts 266°
2026-05-05 11:38 41.78989 12.06240 6082 ft 254 kts 269°
2026-05-05 11:38 41.78994 12.03844 6907 ft 259 kts 269°
2026-05-05 11:39 41.79014 12.01418 7746 ft 262 kts 272°
2026-05-05 11:39 41.79476 11.99033 8574 ft 269 kts 291°
2026-05-05 11:39 41.80258 11.96737 9450 ft 272 kts 292°
2026-05-05 11:39 41.81066 11.94424 10268 ft 276 kts 292°
2026-05-05 11:40 41.81918 11.91999 10599 ft 299 kts 292°
2026-05-05 11:40 41.82837 11.89382 10913 ft 318 kts 292°
2026-05-05 11:40 41.83778 11.86697 11549 ft 325 kts 292°
2026-05-05 11:40 41.84745 11.83930 12279 ft 329 kts 292°
2026-05-05 11:41 41.85722 11.81129 13007 ft 333 kts 292°
2026-05-05 11:41 41.86712 11.78286 13739 ft 337 kts 292°
2026-05-05 11:41 41.87709 11.75417 14394 ft 341 kts 292°
2026-05-05 11:41 41.88716 11.72515 15056 ft 344 kts 292°
2026-05-05 11:42 41.89733 11.69586 15701 ft 347 kts 292°
2026-05-05 11:42 41.90743 11.66675 16339 ft 350 kts 292°
2026-05-05 11:42 41.91776 11.63693 16985 ft 353 kts 291°
2026-05-05 11:42 41.92813 11.60691 17605 ft 356 kts 292°
2026-05-05 11:43 41.93860 11.57655 18249 ft 359 kts 291°
2026-05-05 11:43 41.94912 11.54596 18803 ft 362 kts 292°
2026-05-05 11:43 41.95976 11.51504 19376 ft 364 kts 292°
2026-05-05 11:43 41.97043 11.48402 19936 ft 367 kts 292°
2026-05-05 11:44 41.98106 11.45315 20503 ft 369 kts 292°
2026-05-05 11:44 41.99188 11.42166 21064 ft 372 kts 292°
2026-05-05 11:44 42.00277 11.38991 21669 ft 374 kts 292°
2026-05-05 11:44 42.01372 11.35800 22235 ft 377 kts 292°
2026-05-05 11:45 42.02472 11.32585 22785 ft 379 kts 292°
2026-05-05 11:45 42.03576 11.29348 23321 ft 382 kts 292°
2026-05-05 11:45 42.04687 11.26087 23799 ft 384 kts 292°
2026-05-05 11:45 42.05789 11.22852 24224 ft 386 kts 292°
2026-05-05 11:46 42.06910 11.19557 24641 ft 388 kts 291°
2026-05-05 11:46 42.08035 11.16244 25063 ft 390 kts 291°
2026-05-05 11:46 42.09163 11.12915 25470 ft 392 kts 291°
2026-05-05 11:46 42.10296 11.09569 25870 ft 393 kts 291°
2026-05-05 11:47 42.11438 11.06206 26256 ft 395 kts 291°
2026-05-05 11:47 42.12584 11.02830 26638 ft 397 kts 291°
2026-05-05 11:47 42.13739 10.99430 27018 ft 399 kts 291°
2026-05-05 11:47 42.14896 10.96015 27397 ft 401 kts 291°
2026-05-05 11:48 42.17197 10.89180 28116 ft 405 kts 290°
2026-05-05 11:48 42.18363 10.85709 28457 ft 406 kts 290°
2026-05-05 11:48 42.19532 10.82223 28813 ft 408 kts 290°
2026-05-05 11:49 42.20704 10.78728 29136 ft 410 kts 290°
2026-05-05 11:49 42.21884 10.75211 29471 ft 412 kts 290°
2026-05-05 11:49 42.23067 10.71674 29782 ft 413 kts 290°
2026-05-05 11:49 42.24251 10.68122 30080 ft 415 kts 290°
2026-05-05 11:50 42.25436 10.64565 30331 ft 417 kts 290°
2026-05-05 11:50 42.26634 10.60988 30579 ft 418 kts 292°
2026-05-05 11:50 42.28091 10.57605 30825 ft 425 kts 300°
2026-05-05 11:50 42.29992 10.54504 31052 ft 432 kts 309°
2026-05-05 11:51 42.32100 10.51586 31298 ft 433 kts 309°
2026-05-05 11:51 42.34200 10.48672 31624 ft 431 kts 308°
2026-05-05 11:51 42.36288 10.45764 31929 ft 431 kts 308°
2026-05-05 11:51 42.38363 10.42861 31994 ft 423 kts 308°
2026-05-05 11:52 42.42359 10.37263 32003 ft 412 kts 308°
2026-05-05 11:52 42.46328 10.31665 32000 ft 411 kts 308°
2026-05-05 11:53 42.50287 10.26068 31999 ft 411 kts 308°
2026-05-05 11:53 42.54252 10.20466 32000 ft 411 kts 308°
2026-05-05 11:54 42.58190 10.14903 32000 ft 411 kts 308°
2026-05-05 11:54 42.62152 10.09305 31994 ft 410 kts 308°
2026-05-05 11:55 42.66089 10.03726 31994 ft 411 kts 307°
2026-05-05 11:55 42.70038 9.98109 31996 ft 411 kts 307°
2026-05-05 11:56 42.73990 9.92473 31996 ft 410 kts 307°
2026-05-05 11:56 42.77777 9.86745 31995 ft 404 kts 299°
2026-05-05 11:57 42.80435 9.80118 31997 ft 397 kts 291°
2026-05-05 11:57 42.82511 9.73192 31997 ft 390 kts 279°
2026-05-05 11:58 42.83542 9.65969 31992 ft 388 kts 277°
2026-05-05 11:58 42.84558 9.58733 31990 ft 388 kts 277°
2026-05-05 11:59 42.85558 9.51549 31986 ft 388 kts 277°
2026-05-05 11:59 42.86554 9.44313 31984 ft 388 kts 276°
2026-05-05 12:00 42.87543 9.37108 31980 ft 389 kts 276°
2026-05-05 12:00 42.88537 9.29848 31981 ft 389 kts 276°
2026-05-05 12:01 42.89524 9.22606 31974 ft 388 kts 276°
2026-05-05 12:01 42.90502 9.15348 31980 ft 388 kts 276°
2026-05-05 12:02 42.91480 9.08091 31982 ft 388 kts 276°
2026-05-05 12:02 42.92451 9.00875 31980 ft 388 kts 276°
2026-05-05 12:03 42.93423 8.93607 31984 ft 388 kts 276°
2026-05-05 12:03 42.94385 8.86347 31980 ft 388 kts 276°
2026-05-05 12:04 42.95334 8.79137 31979 ft 388 kts 276°
2026-05-05 12:04 42.96278 8.71894 31981 ft 388 kts 275°
2026-05-05 12:05 42.97223 8.64642 31980 ft 387 kts 275°
2026-05-05 12:05 42.98172 8.57388 31977 ft 387 kts 275°
2026-05-05 12:06 42.99114 8.50155 31979 ft 387 kts 275°
2026-05-05 12:06 43.00040 8.42950 31979 ft 386 kts 275°
2026-05-05 12:07 43.00963 8.35718 31981 ft 386 kts 275°
2026-05-05 12:07 43.01883 8.28492 31982 ft 386 kts 275°
2026-05-05 12:08 43.02803 8.21260 31979 ft 386 kts 275°
2026-05-05 12:08 43.03709 8.14079 31983 ft 385 kts 275°
2026-05-05 12:09 43.04615 8.06841 31979 ft 385 kts 275°
2026-05-05 12:09 43.05522 7.99627 31977 ft 385 kts 275°
2026-05-05 12:10 43.06413 7.92418 31980 ft 385 kts 274°
2026-05-05 12:10 43.07295 7.85234 31979 ft 385 kts 274°
2026-05-05 12:11 43.08177 7.78000 31982 ft 385 kts 274°
2026-05-05 12:11 43.09057 7.70770 31978 ft 385 kts 274°
2026-05-05 12:12 43.09934 7.63548 31978 ft 385 kts 274°
2026-05-05 12:12 43.10811 7.56313 31977 ft 385 kts 274°
2026-05-05 12:13 43.11675 7.49135 31969 ft 384 kts 274°
2026-05-05 12:13 43.12541 7.41873 31973 ft 391 kts 274°
2026-05-05 12:14 43.13267 7.35717 31391 ft 394 kts 274°
2026-05-05 12:14 43.13710 7.31972 30405 ft 400 kts 274°
2026-05-05 12:14 43.14155 7.28221 29609 ft 398 kts 274°
2026-05-05 12:15 43.14598 7.24495 29019 ft 392 kts 274°
2026-05-05 12:15 43.15028 7.20849 28519 ft 384 kts 274°
2026-05-05 12:15 43.15448 7.17258 28028 ft 377 kts 274°
2026-05-05 12:15 43.15853 7.13778 27557 ft 371 kts 274°
2026-05-05 12:16 43.16256 7.10314 27092 ft 365 kts 274°
2026-05-05 12:16 43.16650 7.06908 26642 ft 359 kts 274°
2026-05-05 12:16 43.17038 7.03545 26202 ft 354 kts 274°
2026-05-05 12:16 43.17419 7.00235 25771 ft 349 kts 274°
2026-05-05 12:17 43.17794 6.96963 25361 ft 345 kts 274°
2026-05-05 12:17 43.18162 6.93738 24953 ft 340 kts 274°
2026-05-05 12:17 43.18525 6.90556 24554 ft 336 kts 274°
2026-05-05 12:17 43.18884 6.87406 24158 ft 332 kts 273°
2026-05-05 12:18 43.19240 6.84297 23764 ft 328 kts 274°
2026-05-05 12:18 43.19588 6.81260 23336 ft 325 kts 273°
2026-05-05 12:18 43.19934 6.78219 22929 ft 320 kts 273°
2026-05-05 12:18 43.20273 6.75226 22539 ft 315 kts 273°
2026-05-05 12:19 43.20607 6.72263 22167 ft 311 kts 273°
2026-05-05 12:19 43.20932 6.69332 21797 ft 310 kts 273°
2026-05-05 12:19 43.21256 6.66406 21411 ft 310 kts 273°
2026-05-05 12:19 43.21579 6.63481 21019 ft 309 kts 273°
2026-05-05 12:20 43.21896 6.60558 20592 ft 308 kts 271°
2026-05-05 12:20 43.21987 6.57682 20157 ft 305 kts 266°
2026-05-05 12:20 43.22027 6.54770 19739 ft 305 kts 266°
2026-05-05 12:20 43.22070 6.51859 19314 ft 305 kts 266°
2026-05-05 12:21 43.22112 6.48943 18888 ft 305 kts 266°
2026-05-05 12:21 43.22153 6.46032 18468 ft 306 kts 266°
2026-05-05 12:21 43.22192 6.43107 18015 ft 306 kts 266°
2026-05-05 12:21 43.22232 6.40223 17583 ft 305 kts 266°
2026-05-05 12:22 43.22276 6.37314 17159 ft 304 kts 267°
2026-05-05 12:22 43.22321 6.34416 16747 ft 303 kts 266°
2026-05-05 12:22 43.22364 6.31524 16337 ft 302 kts 267°
2026-05-05 12:22 43.22406 6.28649 15947 ft 300 kts 267°
2026-05-05 12:23 43.22446 6.25784 15542 ft 300 kts 266°
2026-05-05 12:23 43.22486 6.22964 15143 ft 300 kts 267°
2026-05-05 12:23 43.22526 6.20099 14736 ft 300 kts 266°
2026-05-05 12:23 43.22564 6.17241 14327 ft 299 kts 267°
2026-05-05 12:24 43.22600 6.14381 13912 ft 300 kts 267°
2026-05-05 12:24 43.22634 6.11516 13464 ft 301 kts 267°
2026-05-05 12:24 43.22662 6.08638 13034 ft 300 kts 267°
2026-05-05 12:24 43.22686 6.05778 12604 ft 299 kts 267°
2026-05-05 12:25 43.22707 6.02923 12176 ft 299 kts 268°
2026-05-05 12:25 43.22848 6.00064 11739 ft 303 kts 274°
2026-05-05 12:25 43.23136 5.97184 11281 ft 305 kts 275°
2026-05-05 12:25 43.23422 5.94333 10832 ft 305 kts 275°
2026-05-05 12:26 43.23709 5.91449 10378 ft 305 kts 275°
2026-05-05 12:26 43.23994 5.88581 10130 ft 298 kts 275°
2026-05-05 12:26 43.24268 5.85816 10015 ft 286 kts 275°
2026-05-05 12:26 43.24529 5.83167 9941 ft 274 kts 275°
2026-05-05 12:27 43.24782 5.80591 9619 ft 272 kts 275°
2026-05-05 12:27 43.25030 5.78028 9285 ft 269 kts 275°
2026-05-05 12:27 43.25274 5.75501 8971 ft 266 kts 275°
2026-05-05 12:27 43.25514 5.72999 8661 ft 262 kts 275°
2026-05-05 12:28 43.25749 5.70534 8367 ft 259 kts 275°
2026-05-05 12:28 43.25902 5.68920 8161 ft 256 kts 275°
2026-05-05 12:28 43.26157 5.66233 7836 ft 252 kts 275°
2026-05-05 12:28 43.26382 5.63871 7543 ft 248 kts 276°
2026-05-05 12:29 43.26606 5.61534 7257 ft 246 kts 275°
2026-05-05 12:29 43.26631 5.59222 6978 ft 240 kts 261°
2026-05-05 12:29 43.26271 5.56995 6699 ft 239 kts 253°
2026-05-05 12:29 43.25830 5.54829 6420 ft 236 kts 253°
2026-05-05 12:30 43.25397 5.52673 6131 ft 232 kts 253°
2026-05-05 12:30 43.24970 5.50557 5875 ft 230 kts 253°
2026-05-05 12:30 43.24543 5.48443 5601 ft 230 kts 253°
2026-05-05 12:30 43.24121 5.46345 5436 ft 224 kts 253°
2026-05-05 12:31 43.23715 5.44311 5338 ft 218 kts 254°
2026-05-05 12:31 43.23317 5.42328 5278 ft 215 kts 253°
2026-05-05 12:31 43.22979 5.40315 5213 ft 218 kts 263°
2026-05-05 12:31 43.22940 5.38262 4926 ft 217 kts 268°
2026-05-05 12:32 43.22957 5.36187 4654 ft 218 kts 273°
2026-05-05 12:32 43.23504 5.34252 4346 ft 223 kts 308°
2026-05-05 12:32 43.24783 5.33074 4062 ft 226 kts 343°
2026-05-05 12:32 43.26341 5.32964 3787 ft 225 kts
2026-05-05 12:33 43.27908 5.32979 3494 ft 224 kts 358°
2026-05-05 12:33 43.29469 5.32933 3212 ft 224 kts 357°
2026-05-05 12:33 43.31024 5.32873 2939 ft 223 kts 356°
2026-05-05 12:33 43.32561 5.32814 2775 ft 216 kts 357°
2026-05-05 12:34 43.34001 5.32765 2730 ft 202 kts 357°
2026-05-05 12:34 43.35342 5.32532 2551 ft 189 kts 339°
2026-05-05 12:34 43.36481 5.31675 2367 ft 187 kts 316°
2026-05-05 12:34 43.37363 5.30465 2184 ft 173 kts 311°
2026-05-05 12:35 43.38182 5.29301 1960 ft 168 kts 310°
2026-05-05 12:35 43.38979 5.28171 1648 ft 158 kts 310°
2026-05-05 12:35 43.39717 5.27124 1424 ft 148 kts 309°
2026-05-05 12:35 43.40416 5.26132 1118 ft 141 kts 311°
2026-05-05 12:36 43.41091 5.25171 855 ft 137 kts 312°
2026-05-05 12:36 43.41746 5.24240 625 ft 134 kts 313°
2026-05-05 12:36 43.42386 5.23330 393 ft 132 kts 313°
2026-05-05 12:36 43.43024 5.22423 166 ft 131 kts 311°
2026-05-05 12:37 43.43634 5.21555 42 ft 115 kts 312°
2026-05-05 12:37 43.44010 5.21000 23 ft 36 kts 321°
2026-05-05 12:37 43.44064 5.20980 22 ft 5 kts
2026-05-05 12:37 43.44132 5.21033 23 ft 13 kts 49°
2026-05-05 12:38 43.44157 5.21128 26 ft 10 kts 112°
2026-05-05 12:38 43.44114 5.21209 25 ft 12 kts 130°
2026-05-05 12:38 43.44078 5.21294 27 ft 11 kts 97°
2026-05-05 12:38 43.44110 5.21399 28 ft 12 kts 49°
2026-05-05 12:39 43.44170 5.21466 28 ft 10 kts 354°
2026-05-05 12:39 43.44190 5.21445 27 ft 1 kts 320°